This demonstration page uses our WeatherBlox Daily Observations layout. Learn more.

Left ArrowRight Arrow

Hourly Observations for May 10, 2017

Temp ( °F °C ) Dew Point ( °F °C ) Humidity (%) Winds ( mph kmh ) Pressure ( in mb ) Visibility ( mi km ) Precip ( " mm )
12:53 am 00:53 Clear 62 16.7 59 15 90 90 Calm 30.01 1016 10 16 0.00 0.00
1:53 am 01:53 Clear 61 16.1 58 14.4 90 90 Calm 30.00 1016 10 16 0.00 0.00
2:53 am 02:53 Clear 61 16.1 58 14.4 90 90 Calm 29.99 1016 10 16 0.00 0.00
3:53 am 03:53 Clear 59 15 58 14.4 96 96 Calm 30.00 1016 10 16 0.00 0.00
4:53 am 04:53 Clear 58 14.4 57 13.9 97 97 Calm 30.01 1016 10 16 0.00 0.00
5:53 am 05:53 Clear 58 14.4 57 13.9 97 97 Calm 30.03 1017 10 16 0.00 0.00
6:53 am 06:53 Sunny 59 15 57 13.9 93 93 Calm 30.05 1018 10 16 0.00 0.00
7:53 am 07:53 Sunny 62 16.7 59 15 90 90 Calm 30.06 1018 10 16 0.00 0.00
8:53 am 08:53 Sunny 70 21.1 61 16.1 73 73 W 3 6 30.07 1018 10 16 0.00 0.00
9:53 am 09:53 Sunny 76 24.4 62 16.7 62 62 WNW 7 11 30.07 1018 10 16 0.00 0.00
10:53 am 10:53 Sunny 79 26.1 61 16.1 54 54 N 10 17 30.07 1018 10 16 0.00 0.00
11:53 am 11:53 Mostly Sunny 81 27.2 62 16.7 53 53 W 10 17 30.07 1018 10 16 0.00 0.00
12:53 pm 12:53 Mostly Sunny 82 27.8 62 16.7 51 51 undefined N/A 30.05 1018 10 16 0.00 0.00
1:53 pm 13:53 Sunny 83 28.3 59 15 44 44 W 9 15 30.05 1018 10 16 0.00 0.00
2:53 pm 14:53 Sunny 85 29.4 61 16.1 45 45 WNW 12 19 30.02 1017 10 16 0.00 0.00
3:53 pm 15:53 Sunny 86 30 59 15 40 40 W 9 15 30.01 1016 10 16 0.00 0.00
4:53 pm 16:53 Sunny 86 30 60 15.6 42 42 undefined N/A 29.98 1015 10 16 0.00 0.00
5:53 pm 17:53 Sunny 86 30 58 14.4 39 39 W 9 15 29.98 1015 10 16 0.00 0.00
6:53 pm 18:53 Sunny 85 29.4 59 15 42 42 WSW 8 13 29.98 1015 10 16 0.00 0.00
7:53 pm 19:53 Sunny 83 28.3 57 13.9 41 41 WSW 6 9 29.97 1015 10 16 0.00 0.00
8:53 pm 20:53 Clear 79 26.1 59 15 50 50 SW 3 6 29.98 1015 10 16 0.00 0.00
9:53 pm 21:53 Clear 74 23.3 61 16.1 64 64 SSW 3 6 29.99 1016 10 16 0.00 0.00
10:53 pm 22:53 Clear 70 21.1 62 16.7 76 76 Calm 30.00 1016 10 16 0.00 0.00
11:53 pm 23:53 Clear 70 21.1 62 16.7 76 76 Calm 30.00 1016 10 16 0.00 0.00

Powered by AerisWeather